Find Starlink 34722

NORAD ID: 64851 Int'l Des: 2025-152 Owner: SPXS Country: US Constellation: starlink operational
LEOCIRCULARRETROGRADESSO

Live Position

Loading 3D Globe...

About Starlink 34722

Description loading...

Upcoming Passes

Passes for default location (London). Set your location on the main map for personalized predictions.

Altitude History

Loading altitude history...

Two-Line Element Set

1 64851U 25152K 26107.16090513 .00003130 00000-0 22102-3 0 9997
2 64851 97.6039 323.3830 0001834 87.7457 272.3979 15.05650988 41209
Epoch: Apr 17, 2026 • Age: 12 hours

Current Status

Altitude 561.6 km
Velocity 7.59 km/s
Sub-Earth Point 80.02°N, 161.81°W
Launch Date Jul 19, 2025
Age 0.7 years
Type internet

Technical Details

Classification Payload
Mass 575.00 kg
Dry Mass 530.00 kg
Total Mass 575.00 kg
Length 0.30 m
Diameter 4.10 m
Span 29.00 m
Shape Box + pan
Manufacturer SPXS
Bus Type Starlink V2MO
Phase Status In Orbit
Owner/State SPXS/US

Most Searched